[[{"header":{"parameterUnit":"m.s-1","parameterCategory":2,"la1":30.2991,"la2":30.254,"lo1":-89.0895,"lo2":-89.0444,"dy":0.0017,"dx":0.0017,"nx":28,"ny":28,"refTime":"2025-11-06T09:00:00:Z","depth":"0","parameterNumber":2,"parameterNumberName":"U-component_of_CURRENTS"},"data":[0,0,0,0,0,0,0,0,0,0,0,0,0,0,0,0,0,0,0,0,0,0,0,0,0,0,0,0,0,0,0,0,0,0,0,0,0,0,0,0,0,0,0,0,0,0,0,0,0,0,0,0,0,0,0,0,0,0,0.3664,0.3665,0,0.3732,0.3732,0.3732,0.3775,0.3776,0.3776,0.3777,0.3786,0.3786,0.3786,0,0,0,0,0,0,0,0,0,0,0,0,0,0.3626,0.3626,0.3664,0.3665,0.3667,0.3731,0.3732,0.3732,0.3775,0.3776,0.3776,0.3777,0.3786,0.3786,0.3785,0,0,0,0,0,0,0,0,0,0,0,0,0,0.3659,0.3626,0.3664,0.3699,0.3703,0.3731,0.3732,0.3733,0.3775,0.3776,0.3777,0.3777,0.3786,0.3786,0.3785,0.3763,0,0,0.3784,0.3784,0,0,0,0,0,0,0,0,0.3657,0.3659,0.3692,0.3696,0.3701,0.375,0.3723,0.3741,0.3774,0.3743,0.3777,0.3778,0.3771,0.3772,0.3777,0.3763,0.3764,0.3784,0.3783,0.3783,0.3783,0,0,0,0,0,0,0,0.3654,0.3657,0.3686,0.3694,0.3699,0.373,0.3735,0.3726,0.3746,0.3746,0.375,0.3764,0.3772,0.3777,0.3777,0.3764,0.3784,0.3783,0.3783,0.3783,0.3814,0.3815,0,0,0,0,0,0,0.3651,0.3654,0.3684,0.3689,0.3686,0.373,0.3735,0.3729,0.3748,0.3753,0.3763,0.3766,0.3778,0.3778,0.3778,0.3828,0.3783,0.3783,0.3782,0.3813,0.3814,0.3815,0,0,0,0,0,0,0.3649,0.3652,0.3682,0.3678,0.3685,0.373,0.3723,0.373,0.374,0.3762,0.3766,0.3766,0.3778,0.3778,0.3787,0.3826,0.3783,0.3782,0.3811,0.3813,0.3815,0.3879,0,0,0,0,0,0,0.3647,0.365,0.3636,0.3677,0.3685,0.3701,0.3723,0.3731,0.3749,0.3753,0.3766,0.3768,0.3779,0.3788,0.3787,0.3824,0.3782,0.381,0.3812,0.3814,0.3876,0.3883,0.3889,0,0,0,0,0,0.3645,0.3623,0.3634,0.3638,0.3666,0.3702,0.3708,0.3741,0.3748,0.3752,0.377,0.3768,0.3802,0.3788,0.3786,0.3825,0.3809,0.3812,0.3814,0.3873,0.3882,0.3889,0,0,0,0,0,0,0.358,0.3627,0.364,0.3627,0.3665,0.3711,0.3716,0.3736,0.3751,0.3755,0.3769,0.3772,0.3804,0.3792,0.3777,0.384,0.381,0.3812,0.3855,0.3863,0.387,0.3902,0.3781,0,0,0,0,0,0.3564,0.3571,0.3617,0.3607,0.3625,0.3667,0.3682,0.3711,0.3737,0.3745,0.3759,0.3778,0.3811,0.3818,0.3835,0.3848,0.3866,0.3876,0.3882,0.3888,0.3913,0.3982,0.3998,0.3824,0.3824,0.3824,0,0,0.3538,0.3563,0.3567,0.3597,0.3626,0.3672,0.3677,0.3706,0.3754,0.3741,0.3785,0.3796,0.3819,0.386,0.3872,0.3855,0.3941,0.3891,0.3897,0.3919,0.3986,0.4003,0.4019,0.3826,0.3825,0.3825,0,0,0.3519,0.3512,0.3531,0.3568,0.3621,0.3657,0.3666,0.3715,0.3743,0.378,0.3805,0.3839,0.3855,0.3906,0.3929,0.3974,0.3977,0.397,0.4029,0.4094,0.411,0.4124,0.4145,0.4161,0.3971,0.3971,0.3971,0,0.3492,0.3516,0.3539,0.358,0.3618,0.3655,0.3699,0.3738,0.3786,0.3816,0.3802,0.3884,0.3894,0.3985,0.4013,0.3995,0.4013,0.3997,0.4106,0.412,0.4134,0.4152,0.4169,0.3975,0.3974,0.3974,0.3974,0,0.351,0.3533,0.3545,0.362,0.3657,0.3693,0.3765,0.3799,0.3829,0.3873,0.3946,0.3971,0.4023,0.4037,0.4043,0.4148,0.4122,0.4109,0.4089,0.4156,0.417,0.4186,0.3979,0.3978,0.3977,0.3976,0,0,0.3454,0.3544,0.3551,0.3592,0.3683,0.3714,0.3798,0.3881,0.3944,0.3983,0.4061,0.4129,0.4136,0.4164,0.4177,0.424,0.4339,0.4218,0.422,0.4247,0.446,0.437,0.4377,0.4347,0.4351,0.4354,0.4424,0,0.347,0.3542,0.3593,0.3669,0.3713,0.3783,0.3859,0.3938,0.4005,0.4083,0.4136,0.4211,0.4189,0.4222,0.4282,0.4336,0.4388,0.432,0.4387,0.4388,0.4307,0.4396,0.4249,0.4294,0.4439,0.4442,0.4443,0,0.3483,0.3532,0.3604,0.3703,0.3728,0.3784,0.3907,0.3984,0.4111,0.4165,0.4248,0.4288,0.4395,0.4358,0.4486,0.4442,0.4461,0.449,0.4493,0.4405,0.4329,0.4256,0.4317,0.4213,0.4468,0.4466,0.4464,0,0.3439,0.3538,0.359,0.3626,0.3747,0.3793,0.3864,0.3998,0.4076,0.4227,0.4283,0.4404,0.4458,0.4532,0.4573,0.4547,0.4696,0.4658,0.4591,0.4582,0.447,0.4446,0.4449,0.4754,0.4754,0.4754,0.4753,0,0.3437,0.3476,0.3569,0.3599,0.3668,0.3764,0.3856,0.3961,0.4108,0.4183,0.431,0.4387,0.451,0.459,0.4621,0.4653,0.4729,0.4631,0.4616,0.4482,0.4459,0.4371,0.4313,0.4756,0.4755,0.4755,0.4755,0,0.3386,0.3447,0.3505,0.3616,0.3648,0.3697,0.3834,0.39,0.4058,0.4164,0.4214,0.4401,0.4507,0.4599,0.4724,0.4695,0.4622,0.4735,0.4548,0.4509,0.4321,0.4271,0.4138,0.4006,0.4681,0.4679,0.4678,0,0.337,0.3395,0.349,0.3508,0.3555,0.3633,0.3682,0.3857,0.393,0.4145,0.4181,0.4351,0.4436,0.4593,0.4627,0.4683,0.4549,0.4535,0.4464,0.4318,0.4254,0.4105,0.3992,0.4332,0.4328,0.4325,0.4322,0,0.3336,0.3363,0.3402,0.3441,0.3481,0.3526,0.3612,0.3669,0.3846,0.3949,0.4086,0.4195,0.4367,0.4391,0.4477,0.4486,0.4318,0.4466,0.4387,0.4051,0.3821,0.3681,0.4251,0.4293,0.4296,0.4298,0.43,0.4301,0.3294,0.3297,0.3333,0.3356,0.3385,0.3394,0.3397,0.349,0.3582,0.3697,0.3886,0.3974,0.4135,0.4264,0.425,0.4137,0.4113,0.4012,0.3985,0.3864,0.3669,0.4152,0.4128,0.413,0.4132,0.4133,0.4134,0,0.3224,0.3226,0.3243,0.3246,0.3211,0.3277,0.3317,0.329,0.3315,0.3472,0.3577,0.3694,0.3756,0.3857,0.386,0.3705,0.3555,0.3578,0.336,0.3288,0.38,0.3718,0.3515,0.3515,0.3515,0.3515,0.3515,0.3515,0.3187,0.3154,0.315,0.3061,0.3053,0.2968,0.2958,0.2951,0.302,0.3053,0.311,0.3246,0.3497,0.3608,0.3496,0.3399,0.3123,0.2971,0.2946,0.3347,0.3385,0.3422,0.3334,0.3054,0.3053,0.2319,0.2313,0.2309]},{"header":{"parameterUnit":"m.s-1","parameterCategory":2,"la1":30.2991,"la2":30.254,"lo1":-89.0895,"lo2":-89.0444,"dy":0.0017,"dx":0.0017,"nx":28,"ny":28,"refTime":"2025-11-06T09:00:00:Z","depth":"0","parameterNumber":3,"parameterNumberName":"V-component_of_CURRENTS"},"data":[0,0,0,0,0,0,0,0,0,0,0,0,0,0,0,0,0,0,0,0,0,0,0,0,0,0,0,0,0,0,0,0,0,0,0,0,0,0,0,0,0,0,0,0,0,0,0,0,0,0,0,0,0,0,0,0,0,0,-0.0157,-0.0158,0,-0.0248,-0.0249,-0.025,-0.0335,-0.0336,-0.0337,-0.0338,-0.0454,-0.0456,-0.0459,0,0,0,0,0,0,0,0,0,0,0,0,0,-0.0108,-0.0108,-0.0157,-0.0158,-0.0159,-0.0248,-0.0249,-0.0251,-0.0335,-0.0336,-0.0337,-0.0338,-0.0453,-0.0456,-0.0459,0,0,0,0,0,0,0,0,0,0,0,0,0,-0.0158,-0.0108,-0.0157,-0.021,-0.0216,-0.0248,-0.0249,-0.0251,-0.0335,-0.0336,-0.0338,-0.0339,-0.0452,-0.0456,-0.0459,-0.0453,0,0,-0.0469,-0.0471,0,0,0,0,0,0,0,0,-0.0155,-0.016,-0.0202,-0.0207,-0.0213,-0.028,-0.0275,-0.0319,-0.0335,-0.0292,-0.0338,-0.0339,-0.0396,-0.0404,-0.042,-0.0459,-0.0464,-0.047,-0.0472,-0.0473,-0.0474,0,0,0,0,0,0,0,-0.0152,-0.0157,-0.0195,-0.0202,-0.0209,-0.0248,-0.0256,-0.0284,-0.0337,-0.0295,-0.0301,-0.0308,-0.04,-0.0417,-0.0424,-0.0465,-0.047,-0.0473,-0.0475,-0.0476,-0.0533,-0.0533,0,0,0,0,0,0,-0.0133,-0.0153,-0.0192,-0.0197,-0.0185,-0.0247,-0.0257,-0.0259,-0.0336,-0.0349,-0.0307,-0.0312,-0.0411,-0.042,-0.0428,-0.0432,-0.0473,-0.0476,-0.0478,-0.0534,-0.0533,-0.0533,0,0,0,0,0,0,-0.0131,-0.0135,-0.0188,-0.0177,-0.0186,-0.0246,-0.0248,-0.026,-0.0276,-0.0345,-0.0358,-0.0311,-0.0412,-0.0424,-0.045,-0.0437,-0.0478,-0.0481,-0.0534,-0.0534,-0.0533,-0.0436,0,0,0,0,0,0,-0.0129,-0.0134,-0.0126,-0.0175,-0.0186,-0.0196,-0.0247,-0.026,-0.0277,-0.0284,-0.0352,-0.0364,-0.0414,-0.0445,-0.0454,-0.0443,-0.0484,-0.0535,-0.0534,-0.0533,-0.044,-0.0432,-0.0425,0,0,0,0,0,-0.0127,-0.0106,-0.0125,-0.013,-0.0174,-0.0195,-0.0204,-0.0253,-0.0276,-0.0274,-0.0323,-0.0362,-0.0446,-0.0447,-0.0457,-0.0447,-0.0535,-0.0534,-0.0533,-0.0443,-0.0434,-0.0426,0,0,0,0,0,0,-0.0077,-0.0114,-0.0136,-0.0127,-0.0155,-0.0209,-0.0209,-0.024,-0.0277,-0.0283,-0.0351,-0.0366,-0.0389,-0.0427,-0.0427,-0.0462,-0.0498,-0.0499,-0.0426,-0.0418,-0.0411,-0.0385,-0.0487,0,0,0,0,0,-0.0061,-0.006,-0.01,-0.0093,-0.0101,-0.0152,-0.0165,-0.0196,-0.0235,-0.0253,-0.0301,-0.0351,-0.0391,-0.041,-0.0452,-0.0461,-0.0485,-0.0464,-0.0457,-0.045,-0.0437,-0.0465,-0.0458,-0.0529,-0.0529,-0.0529,0,0,-0.0041,-0.006,-0.006,-0.0083,-0.0109,-0.0108,-0.0163,-0.0172,-0.0176,-0.0257,-0.0273,-0.0325,-0.0388,-0.0409,-0.0422,-0.0439,-0.044,-0.0449,-0.0443,-0.0433,-0.0463,-0.0456,-0.045,-0.0528,-0.0528,-0.0528,0,0,0.0002,-0.0013,0.0001,-0.0014,-0.004,-0.0068,-0.0064,-0.0108,-0.0132,-0.0152,-0.0215,-0.0252,-0.0311,-0.0354,-0.0384,-0.0356,-0.0402,-0.0374,-0.0313,-0.034,-0.0335,-0.033,-0.0332,-0.0329,-0.0368,-0.0368,-0.0368,0,0.0026,0.0042,0.0004,0.0015,0.0015,-0.0041,-0.002,-0.0049,-0.0099,-0.0105,-0.0144,-0.0227,-0.0284,-0.0308,-0.0309,-0.0338,-0.0354,-0.0339,-0.0329,-0.0325,-0.0322,-0.0326,-0.0323,-0.0363,-0.0364,-0.0364,-0.0365,0,0.0078,0.0091,0.0104,0.0099,0.0093,0.0106,0.0066,0.0057,0.0021,-0.0012,-0.0044,-0.0126,-0.0172,-0.0203,-0.0252,-0.0255,-0.0273,-0.0316,-0.0345,-0.0308,-0.0316,-0.0314,-0.0356,-0.0358,-0.036,-0.0361,0,0,0.013,0.0139,0.0144,0.0162,0.0143,0.0149,0.0151,0.0143,0.016,0.0089,0.0102,0.0007,-0.0036,-0.0073,-0.0141,-0.0174,-0.0169,-0.0228,-0.0232,-0.0219,-0.0207,-0.0218,-0.0218,-0.0211,-0.0211,-0.0211,-0.0213,0,0.0183,0.0235,0.022,0.0271,0.0298,0.026,0.0268,0.0251,0.0228,0.0226,0.0135,0.0112,0.0013,-0.0005,-0.0053,-0.0136,-0.0164,-0.0163,-0.0255,-0.0257,-0.0263,-0.0217,-0.0195,-0.0196,-0.0213,-0.0212,-0.0212,0,0.024,0.027,0.0331,0.0366,0.0375,0.0389,0.0416,0.0422,0.0398,0.0379,0.0339,0.0267,0.0209,0.0115,0.0,0.0007,-0.0086,-0.0162,-0.0164,-0.0208,-0.0266,-0.0242,-0.0194,-0.0368,-0.0211,-0.0211,-0.0211,0,0.0303,0.0352,0.0409,0.0419,0.0441,0.046,0.0474,0.0469,0.0509,0.0486,0.0508,0.0411,0.0385,0.0247,0.0083,0.0046,-0.0036,-0.0108,-0.0204,-0.0206,-0.0221,-0.0224,-0.0342,-0.0186,-0.0186,-0.0186,-0.0186,0,0.037,0.0416,0.0443,0.0473,0.0551,0.0534,0.0616,0.0614,0.0645,0.0716,0.0597,0.0635,0.0415,0.0332,0.0155,0.0002,0.0021,-0.0173,-0.0205,-0.0185,-0.0185,-0.0367,-0.0482,-0.0186,-0.0186,-0.0186,-0.0186,0,0.043,0.0443,0.0516,0.0559,0.0582,0.0639,0.0725,0.0792,0.0793,0.0886,0.0884,0.0827,0.0721,0.05,0.0302,0.0123,-0.0145,-0.0114,-0.0063,-0.009,-0.036,-0.0469,-0.063,-0.0697,-0.0214,-0.0214,-0.0215,0,0.0465,0.0507,0.059,0.0651,0.0675,0.076,0.0829,0.0866,0.0959,0.1016,0.1084,0.1007,0.0994,0.0709,0.0378,0.0089,-0.0119,-0.0105,-0.0191,-0.0351,-0.0497,-0.0588,-0.0638,-0.0165,-0.0165,-0.0164,-0.0164,0,0.0538,0.0563,0.0629,0.0753,0.0839,0.0952,0.1058,0.1156,0.1212,0.13,0.1415,0.141,0.1131,0.0874,0.0449,0.0218,-0.0226,-0.0112,-0.0297,-0.0476,-0.0563,-0.0648,-0.0175,-0.0163,-0.0163,-0.0163,-0.0163,-0.0163,0.0597,0.066,0.0747,0.0871,0.098,0.1128,0.1238,0.1379,0.1548,0.1693,0.1678,0.172,0.1295,0.074,0.0406,-0.0196,-0.0218,-0.0385,-0.0502,-0.0575,-0.0656,-0.0166,-0.0188,-0.0188,-0.0188,-0.0188,-0.0189,0,0.0673,0.0745,0.0862,0.1007,0.1143,0.1184,0.1384,0.1515,0.1737,0.1882,0.1988,0.1813,0.1298,0.0724,-0.0081,-0.05,-0.0669,-0.0738,-0.0869,-0.0901,-0.0472,-0.0487,-0.0551,-0.0551,-0.0551,-0.0551,-0.055,-0.055,0.0714,0.0834,0.0892,0.1117,0.1226,0.141,0.1531,0.1743,0.1901,0.2099,0.2143,0.2136,0.1678,0.027,-0.0677,-0.0893,-0.1186,-0.1259,-0.1397,-0.1125,-0.1101,-0.1078,-0.1119,-0.1315,-0.1316,-0.1757,-0.1762,-0.1766]}],[{"header":{"parameterUnit":"m.s-1","parameterCategory":2,"la1":30.2991,"la2":30.254,"lo1":-89.0895,"lo2":-89.0444,"dy":0.0017,"dx":0.0017,"nx":28,"ny":28,"refTime":"2025-11-06T09:00:00:Z","depth":"2","parameterNumber":2,"parameterNumberName":"U-component_of_CURRENTS"},"data":[0,0,0,0,0,0,0,0,0,0,0,0,0,0,0,0,0,0,0,0,0,0,0,0,0,0,0,0,0,0,0,0,0,0,0,0,0,0,0,0,0,0,0,0,0,0,0,0,0,0,0,0,0,0,0,0,0,0,0.3013,0.3014,0,0.3048,0.3048,0.3049,0.3067,0.3068,0.3068,0.3068,0.3081,0.3081,0.3082,0,0,0,0,0,0,0,0,0,0,0,0,0,0.2966,0.2967,0.3013,0.3014,0.3015,0.3048,0.3048,0.3049,0.3067,0.3068,0.3068,0.3068,0.3081,0.3081,0.3082,0,0,0,0,0,0,0,0,0,0,0,0,0,0.299,0.2967,0.3013,0.303,0.3032,0.3048,0.3048,0.3049,0.3067,0.3068,0.3068,0.3069,0.3081,0.3081,0.3082,0.3074,0,0,0.3082,0.3082,0,0,0,0,0,0,0,0,0.2989,0.2991,0.3027,0.3029,0.3031,0.3056,0.3037,0.3057,0.3067,0.3051,0.3068,0.3069,0.3072,0.3073,0.3075,0.3075,0.3075,0.3082,0.3082,0.3082,0.3082,0,0,0,0,0,0,0,0.2987,0.299,0.3024,0.3027,0.303,0.3037,0.3041,0.3041,0.3057,0.3053,0.3055,0.3062,0.3073,0.3075,0.3076,0.3075,0.3082,0.3082,0.3082,0.3082,0.3153,0.3154,0,0,0,0,0,0,0.2987,0.2988,0.3023,0.3026,0.3013,0.3038,0.3042,0.3046,0.3057,0.306,0.3062,0.3063,0.3075,0.3076,0.3076,0.3136,0.3082,0.3082,0.3082,0.3151,0.3153,0.3155,0,0,0,0,0,0,0.2986,0.299,0.3022,0.301,0.3015,0.3038,0.3043,0.3046,0.3066,0.3065,0.3067,0.3081,0.3075,0.3076,0.3098,0.3134,0.3082,0.3082,0.3149,0.3152,0.3154,0.3211,0,0,0,0,0,0,0.2984,0.2989,0.2996,0.301,0.3016,0.3045,0.3043,0.3047,0.307,0.3072,0.3081,0.3082,0.3076,0.3098,0.3098,0.3133,0.3083,0.3146,0.315,0.3153,0.3207,0.3215,0.3223,0,0,0,0,0,0.2982,0.2987,0.2996,0.3001,0.3023,0.3046,0.3049,0.3065,0.3071,0.3083,0.3094,0.3083,0.312,0.3099,0.3098,0.3135,0.3145,0.3149,0.3153,0.3203,0.3214,0.3222,0,0,0,0,0,0,0.2965,0.2991,0.3,0.3012,0.3035,0.305,0.3063,0.3075,0.3093,0.3097,0.3095,0.3097,0.3135,0.3125,0.3102,0.3168,0.3135,0.3139,0.3173,0.3183,0.319,0.3207,0.3083,0,0,0,0,0,0.2966,0.298,0.3005,0.3016,0.3029,0.305,0.3063,0.3076,0.3092,0.3101,0.3108,0.3123,0.3149,0.3157,0.3171,0.3194,0.3205,0.3222,0.323,0.3237,0.3252,0.3299,0.3312,0.3168,0.3168,0.3168,0,0,0.296,0.2978,0.2984,0.3014,0.3032,0.306,0.3059,0.3084,0.3115,0.3098,0.3137,0.3149,0.3162,0.3199,0.3216,0.3196,0.3285,0.3242,0.3247,0.3259,0.3304,0.3318,0.3331,0.3171,0.317,0.317,0,0,0.2959,0.2975,0.2991,0.3016,0.3053,0.307,0.3084,0.3111,0.3134,0.3167,0.3177,0.3213,0.323,0.3259,0.3274,0.3332,0.3327,0.3338,0.3386,0.3431,0.3443,0.3454,0.3487,0.35,0.3338,0.3338,0.3338,0,0.2954,0.2976,0.2999,0.3027,0.3051,0.308,0.3107,0.3138,0.3171,0.3194,0.3188,0.3256,0.3266,0.3331,0.3359,0.3352,0.337,0.3345,0.3441,0.3452,0.3462,0.3493,0.3507,0.3341,0.3341,0.3341,0.334,0,0.2968,0.2994,0.3006,0.3055,0.3084,0.311,0.3158,0.3191,0.3218,0.3248,0.3314,0.3336,0.3378,0.3394,0.3396,0.3481,0.3468,0.3447,0.3415,0.348,0.3509,0.3522,0.3346,0.3345,0.3344,0.3343,0,0,0.2936,0.3003,0.3009,0.3035,0.31,0.3121,0.3183,0.3242,0.3295,0.3331,0.3396,0.3452,0.347,0.3491,0.3505,0.3549,0.3639,0.3535,0.3536,0.3564,0.3739,0.3669,0.3677,0.3634,0.3636,0.3639,0.373,0,0.2942,0.2988,0.3027,0.3077,0.3104,0.3158,0.3217,0.3278,0.3336,0.3408,0.3454,0.3525,0.3507,0.3546,0.3587,0.3635,0.3678,0.3617,0.3675,0.3677,0.3604,0.3691,0.3397,0.3448,0.3743,0.3745,0.3746,0,0.2942,0.2975,0.3019,0.3091,0.311,0.3152,0.3246,0.3304,0.3416,0.347,0.3543,0.3589,0.368,0.3652,0.3755,0.3717,0.374,0.3763,0.3766,0.3692,0.3633,0.3431,0.3461,0.3769,0.3767,0.3765,0.3764,0,0.2896,0.2967,0.2998,0.3023,0.3114,0.315,0.3205,0.3316,0.3385,0.3523,0.3585,0.3684,0.3748,0.3797,0.3845,0.3815,0.3946,0.3902,0.3857,0.3852,0.3609,0.3577,0.3976,0.3976,0.3976,0.3976,0.3976,0,0.2879,0.2903,0.2981,0.2998,0.3052,0.3126,0.3208,0.3289,0.3422,0.3501,0.3612,0.3692,0.3791,0.3867,0.3888,0.3921,0.3979,0.3893,0.3883,0.362,0.359,0.3867,0.3853,0.3979,0.3978,0.3978,0.3977,0,0.2823,0.2872,0.2911,0.3,0.3029,0.3068,0.3196,0.3259,0.3397,0.3507,0.3558,0.3728,0.3833,0.3907,0.401,0.3973,0.4015,0.4005,0.3691,0.3642,0.3878,0.3866,0.3973,0.3972,0.3971,0.397,0.3969,0,0.2798,0.2812,0.2894,0.2914,0.2955,0.3027,0.3079,0.3229,0.3298,0.3507,0.3544,0.3716,0.3801,0.3933,0.3927,0.3964,0.4017,0.3688,0.3579,0.3905,0.3884,0.3874,0.3864,0.3278,0.3272,0.3267,0.3262,0,0.2749,0.278,0.281,0.2854,0.29,0.295,0.3031,0.3082,0.3248,0.3349,0.3479,0.3581,0.373,0.3652,0.3717,0.3687,0.366,0.3583,0.4016,0.3329,0.3258,0.3235,0.3246,0.3215,0.322,0.3223,0.3226,0.3228,0.2707,0.2711,0.2749,0.2779,0.2823,0.2839,0.2839,0.293,0.3011,0.3112,0.3293,0.3338,0.3414,0.3376,0.3293,0.3223,0.3468,0.3293,0.3305,0.3324,0.3232,0.3163,0.3085,0.3089,0.3092,0.3095,0.3098,0,0.2637,0.2647,0.267,0.2682,0.2669,0.274,0.2775,0.2741,0.2757,0.2896,0.2986,0.2809,0.2794,0.2858,0.2696,0.2714,0.2653,0.259,0.247,0.2521,0.2566,0.2429,0.2073,0.2069,0.2066,0.2063,0,0,0.2599,0.2576,0.2578,0.2517,0.2527,0.2459,0.2446,0.2423,0.2465,0.2452,0.2461,0.2692,0.28,0.2399,0.236,0.2183,0.2327,0.2102,0.2934,0.2846,0.2886,0.2995,0.2847,0,0,0,0,0]},{"header":{"parameterUnit":"m.s-1","parameterCategory":2,"la1":30.2991,"la2":30.254,"lo1":-89.0895,"lo2":-89.0444,"dy":0.0017,"dx":0.0017,"nx":28,"ny":28,"refTime":"2025-11-06T09:00:00:Z","depth":"2","parameterNumber":3,"parameterNumberName":"V-component_of_CURRENTS"},"data":[0,0,0,0,0,0,0,0,0,0,0,0,0,0,0,0,0,0,0,0,0,0,0,0,0,0,0,0,0,0,0,0,0,0,0,0,0,0,0,0,0,0,0,0,0,0,0,0,0,0,0,0,0,0,0,0,0,0,0.0141,0.0141,0,0.0079,0.0078,0.0077,0.0031,0.0031,0.0031,0.0031,-0.0041,-0.0043,-0.0044,0,0,0,0,0,0,0,0,0,0,0,0,0,0.0174,0.0174,0.0142,0.0141,0.014,0.0079,0.0078,0.0077,0.0031,0.0031,0.0031,0.0031,-0.0041,-0.0043,-0.0045,0,0,0,0,0,0,0,0,0,0,0,0,0,0.0139,0.0174,0.0142,0.0111,0.0108,0.0079,0.0078,0.0077,0.0031,0.0031,0.0031,0.003,-0.004,-0.0042,-0.0045,-0.0054,0,0,-0.0053,-0.0054,0,0,0,0,0,0,0,0,0.0141,0.0138,0.0117,0.0114,0.011,0.0064,0.0063,0.0033,0.0032,0.0059,0.0031,0.003,-0.0005,-0.0011,-0.0024,-0.0057,-0.006,-0.0053,-0.0054,-0.0055,-0.0056,0,0,0,0,0,0,0,0.0144,0.014,0.0115,0.0116,0.0112,0.0085,0.008,0.0057,0.0028,0.0056,0.0053,0.0049,-0.0007,-0.0022,-0.0026,-0.0061,-0.0053,-0.0055,-0.0057,-0.0058,-0.0106,-0.0106,0,0,0,0,0,0,0.0158,0.0142,0.0117,0.0113,0.0127,0.0085,0.0079,0.0078,0.0028,0.0021,0.005,0.0048,-0.0017,-0.0023,-0.0029,-0.0025,-0.0055,-0.0058,-0.0059,-0.0106,-0.0106,-0.0106,0,0,0,0,0,0,0.0159,0.0156,0.0119,0.0128,0.0121,0.0085,0.0084,0.0077,0.0064,0.0024,0.0016,0.0045,-0.0018,-0.0025,-0.0043,-0.0029,-0.0059,-0.0061,-0.0107,-0.0106,-0.0106,-0.0028,0,0,0,0,0,0,0.016,0.0157,0.0158,0.0129,0.0121,0.0111,0.0084,0.0076,0.0063,0.006,0.0017,0.001,-0.0018,-0.0039,-0.0046,-0.0033,-0.0063,-0.0107,-0.0106,-0.0106,-0.0031,-0.0025,-0.002,0,0,0,0,0,0.0161,0.0171,0.0159,0.0156,0.0125,0.0112,0.0106,0.0077,0.0064,0.0064,0.0034,0.0011,-0.0041,-0.0041,-0.0049,-0.0036,-0.0107,-0.0106,-0.0106,-0.0033,-0.0026,-0.002,0,0,0,0,0,0,0.0185,0.0167,0.0153,0.0156,0.0138,0.0105,0.0103,0.0083,0.0059,0.0057,0.0015,0.0006,-0.0007,-0.0033,-0.0032,-0.005,-0.0078,-0.0079,-0.002,-0.0014,-0.0009,0.0014,-0.0065,0,0,0,0,0,0.0192,0.0195,0.0171,0.0172,0.0167,0.0135,0.0125,0.0109,0.0085,0.0073,0.0043,0.0012,-0.0011,-0.0021,-0.0049,-0.0055,-0.0086,-0.0054,-0.0048,-0.0043,-0.0031,-0.0068,-0.0064,-0.0104,-0.0104,-0.0104,0,0,0.0202,0.0192,0.0193,0.0178,0.0161,0.0169,0.0128,0.0122,0.0129,0.007,0.0067,0.0028,-0.001,-0.0019,-0.0027,-0.0037,-0.0049,-0.0043,-0.0038,-0.0029,-0.0067,-0.0063,-0.0059,-0.0104,-0.0104,-0.0104,0,0,0.0233,0.0215,0.0232,0.0223,0.0208,0.0193,0.0196,0.0167,0.0154,0.0143,0.0104,0.0077,0.004,0.0019,0.0003,0.0022,-0.0023,0.0009,0.0061,0.0026,0.0029,0.0031,-0.0003,-0.0005,0.0016,0.0017,0.0017,0,0.0245,0.0265,0.0234,0.0249,0.0255,0.0211,0.0238,0.0218,0.0187,0.0185,0.0154,0.0098,0.0061,0.0058,0.0061,0.0037,0.0006,0.0043,0.0034,0.0036,0.0037,0.0001,-0.0001,0.002,0.002,0.002,0.0019,0,0.0292,0.0307,0.0317,0.0327,0.0325,0.0339,0.0317,0.031,0.0285,0.0264,0.0243,0.0183,0.0154,0.0133,0.0103,0.0098,0.007,0.0043,0.0023,0.0046,0.0006,0.0002,0.0026,0.0025,0.0023,0.0022,0,0,0.0328,0.0349,0.0353,0.0378,0.0372,0.0382,0.0393,0.0397,0.0414,0.0358,0.037,0.031,0.0267,0.0246,0.0196,0.0163,0.0139,0.0114,0.011,0.0089,0.006,0.0038,0.0031,0.0108,0.0108,0.0108,0.0028,0,0.0378,0.0436,0.0428,0.0486,0.0518,0.049,0.0507,0.0499,0.048,0.0476,0.0404,0.0389,0.0315,0.0301,0.0255,0.0171,0.0132,0.0163,0.0032,0.0028,0.0013,0.0027,0.0047,-0.0022,0.0024,0.0023,0.0023,0,0.0431,0.0467,0.0534,0.058,0.0591,0.0611,0.0641,0.0655,0.0631,0.0614,0.0576,0.0513,0.0458,0.0386,0.0255,0.0277,0.0179,0.0103,0.0098,0.005,-0.0001,-0.004,-0.0031,0.0016,0.0017,0.0017,0.0018,0,0.0485,0.0543,0.0605,0.0619,0.0656,0.0678,0.0697,0.0695,0.0729,0.0704,0.0714,0.0623,0.0588,0.0453,0.0287,0.0272,0.0137,0.0095,-0.0019,-0.0022,-0.0043,-0.0048,0.0002,0.0002,0.0003,0.0003,0.0003,0,0.0547,0.0596,0.0635,0.0669,0.0748,0.0744,0.082,0.082,0.084,0.0891,0.0791,0.0802,0.0602,0.0494,0.0329,0.015,0.0165,-0.0003,-0.0041,-0.0017,-0.0017,-0.0016,-0.0017,-0.0,0.0,0.0001,0.0002,0,0.0599,0.062,0.0698,0.0752,0.0775,0.0832,0.0913,0.0969,0.0967,0.1029,0.1025,0.0943,0.0804,0.0593,0.038,0.0219,0.0039,-0.0031,0.001,-0.002,-0.0108,-0.0105,-0.0162,-0.0164,-0.0165,-0.0166,-0.0167,0,0.0632,0.0675,0.0763,0.0815,0.0843,0.0928,0.0992,0.1031,0.11,0.112,0.1158,0.1047,0.0989,0.0667,0.0367,0.0079,0.0039,-0.0099,-0.0128,-0.0093,-0.0124,-0.0118,-0.0113,-0.0131,-0.0131,-0.0132,-0.0132,0,0.0697,0.0721,0.0786,0.0896,0.0974,0.108,0.1171,0.1246,0.1292,0.1342,0.138,0.1334,0.1029,0.0749,0.0347,0.0145,-0.0054,-0.0116,-0.0088,-0.0087,-0.0068,-0.0097,-0.0092,-0.0135,-0.0135,-0.0135,-0.0134,-0.0134,0.0742,0.0798,0.0876,0.0984,0.1081,0.1206,0.1301,0.1403,0.1523,0.1592,0.1545,0.1482,0.1153,0.0651,0.0299,-0.0079,-0.006,-0.0197,-0.0194,-0.0191,-0.0168,-0.0152,-0.023,-0.023,-0.0231,-0.0231,-0.0231,0,0.08,0.086,0.0959,0.1084,0.1198,0.1245,0.1405,0.1499,0.1642,0.1697,0.1725,0.141,0.1089,0.0704,0.0152,-0.0172,-0.0203,-0.0285,-0.0244,-0.0238,-0.0234,-0.0212,-0.0287,-0.0288,-0.0289,-0.029,0,0,0.0829,0.0926,0.0974,0.1156,0.125,0.1407,0.1504,0.1639,0.1718,0.178,0.1747,0.167,0.1205,0.0802,0.0355,0.0036,-0.0031,-0.0037,0.0042,0.0148,0.0157,-0.0151,-0.0106,0,0,0,0,0]}],[{"header":{"parameterUnit":"m.s-1","parameterCategory":2,"la1":30.2991,"la2":30.254,"lo1":-89.0895,"lo2":-89.0444,"dy":0.0017,"dx":0.0017,"nx":28,"ny":28,"refTime":"2025-11-06T09:00:00:Z","depth":"4","parameterNumber":2,"parameterNumberName":"U-component_of_CURRENTS"},"data":[0,0,0,0,0,0,0,0,0,0,0,0,0,0,0,0,0,0,0,0,0,0,0,0,0,0,0,0,0,0,0,0,0,0,0,0,0,0,0,0,0,0,0,0,0,0,0,0,0,0,0,0,0,0,0,0,0,0,0.1929,0.1929,0,0.1994,0.1995,0.1996,0.2053,0.2054,0.2055,0.2056,0.2121,0.2122,0.2123,0,0,0,0,0,0,0,0,0,0,0,0,0,0.1845,0.1847,0.1928,0.1929,0.193,0.1994,0.1995,0.1996,0.2053,0.2054,0.2055,0.2056,0.2121,0.2122,0.2124,0,0,0,0,0,0,0,0,0,0,0,0,0,0.1892,0.1847,0.1928,0.1968,0.1972,0.1994,0.1995,0.1996,0.2053,0.2054,0.2055,0.2057,0.2121,0.2122,0.2124,0.211,0,0,0.2128,0.2129,0,0,0,0,0,0,0,0,0.1889,0.1895,0.1961,0.1965,0.197,0.2018,0.199,0.2034,0.2053,0.2021,0.2056,0.2057,0.2087,0.2091,0.2099,0.2113,0.2116,0.2129,0.2129,0.213,0.2131,0,0,0,0,0,0,0,0.1886,0.1892,0.1953,0.1962,0.1967,0.198,0.1987,0.1998,0.2046,0.2024,0.2029,0.2037,0.2089,0.2098,0.2101,0.2117,0.2128,0.213,0.2131,0.2131,0.2241,0.2243,0,0,0,0,0,0,0.188,0.1889,0.1951,0.1955,0.1933,0.198,0.1989,0.2,0.2046,0.2054,0.2036,0.204,0.2094,0.2099,0.2104,0.2192,0.213,0.2132,0.2132,0.2239,0.2242,0.2244,0,0,0,0,0,0,0.1878,0.1885,0.1949,0.1925,0.1934,0.1981,0.1993,0.2001,0.2052,0.2055,0.2064,0.2084,0.2095,0.2102,0.2157,0.2191,0.2132,0.2134,0.2237,0.224,0.2243,0.2302,0,0,0,0,0,0,0.1875,0.1883,0.1912,0.1924,0.1935,0.1985,0.1992,0.2001,0.2053,0.206,0.2098,0.2103,0.2097,0.2155,0.2159,0.2192,0.2135,0.2234,0.2238,0.2242,0.2298,0.2307,0.2315,0,0,0,0,0,0.1872,0.1895,0.1913,0.1922,0.1965,0.1987,0.1994,0.2029,0.2055,0.208,0.2116,0.2104,0.2181,0.2158,0.2162,0.2196,0.2233,0.2237,0.2242,0.2294,0.2305,0.2315,0,0,0,0,0,0,0.1874,0.1904,0.1923,0.1957,0.1983,0.1998,0.2032,0.2053,0.2101,0.2123,0.2128,0.2136,0.2196,0.2192,0.2166,0.2241,0.2205,0.2211,0.2244,0.2254,0.2263,0.2276,0.2136,0,0,0,0,0,0.1887,0.1917,0.194,0.1972,0.1989,0.202,0.2044,0.2067,0.2098,0.2123,0.215,0.2182,0.2209,0.2231,0.225,0.229,0.2298,0.2317,0.2325,0.2332,0.2348,0.2386,0.2399,0.2259,0.2259,0.2259,0,0,0.1896,0.1919,0.1937,0.1976,0.2003,0.2031,0.2039,0.2084,0.212,0.2121,0.2195,0.2215,0.2228,0.2276,0.2302,0.2282,0.2379,0.2338,0.2344,0.2356,0.2392,0.2406,0.2418,0.2262,0.2261,0.2261,0,0,0.191,0.1953,0.1978,0.2005,0.2053,0.2069,0.2092,0.2132,0.2171,0.2227,0.2243,0.2292,0.233,0.235,0.2361,0.243,0.2423,0.2439,0.2493,0.253,0.2541,0.2552,0.2586,0.2599,0.2443,0.2443,0.2443,0,0.1926,0.1956,0.1989,0.2019,0.2048,0.2091,0.2121,0.2162,0.2219,0.2252,0.2263,0.2349,0.2363,0.2421,0.2452,0.2448,0.2471,0.2449,0.254,0.2551,0.256,0.2593,0.2606,0.2446,0.2446,0.2445,0.2445,0,0.1942,0.1987,0.2006,0.2059,0.2094,0.213,0.2179,0.2233,0.2284,0.2316,0.2401,0.2432,0.2481,0.2495,0.2498,0.2577,0.2572,0.2545,0.251,0.2578,0.2608,0.2621,0.2451,0.245,0.2449,0.2448,0,0,0.1921,0.2002,0.2014,0.2047,0.2121,0.2143,0.2218,0.228,0.2343,0.2405,0.2479,0.2538,0.257,0.2588,0.2605,0.2646,0.2734,0.2638,0.2638,0.2666,0.2829,0.2649,0.2645,0.2727,0.2729,0.2731,0.2824,0,0.1928,0.1983,0.2026,0.2089,0.2119,0.2187,0.2251,0.2321,0.2391,0.2476,0.2529,0.2609,0.2601,0.265,0.2688,0.273,0.2771,0.2712,0.2765,0.2767,0.2593,0.2655,0.2739,0.2834,0.2837,0.2839,0.284,0,0.1921,0.1962,0.2021,0.2107,0.213,0.2183,0.2294,0.2359,0.2478,0.2541,0.2626,0.2677,0.2772,0.2749,0.285,0.2818,0.2838,0.2856,0.2859,0.2679,0.261,0.2752,0.2863,0.2861,0.286,0.2858,0.2857,0,0.1867,0.1955,0.2004,0.2034,0.2139,0.2195,0.2263,0.2383,0.2455,0.2604,0.2673,0.2773,0.285,0.2893,0.2939,0.2913,0.3033,0.2987,0.2842,0.283,0.2937,0.2925,0.3052,0.3052,0.3052,0.3052,0.3052,0,0.1832,0.1877,0.1993,0.2018,0.2096,0.2182,0.2285,0.2375,0.2514,0.2595,0.2714,0.2786,0.2896,0.2967,0.2981,0.2951,0.3064,0.2867,0.2843,0.2961,0.2951,0.2947,0.2933,0.3055,0.3055,0.3054,0.3053,0,0.1758,0.1834,0.1899,0.2024,0.2072,0.2132,0.229,0.2358,0.251,0.2625,0.2682,0.2836,0.2922,0.2998,0.3083,0.299,0.2991,0.2951,0.3099,0.3079,0.2756,0.2745,0.279,0.2784,0.2779,0.2776,0.2772,0,0.1718,0.1747,0.1891,0.1937,0.2003,0.2111,0.2181,0.2343,0.241,0.2622,0.2653,0.2811,0.2886,0.2863,0.2953,0.2965,0.2925,0.2905,0.2803,0.2757,0.273,0.2727,0.2722,0.2765,0.2764,0.2762,0.2761,0,0.1643,0.1717,0.1773,0.187,0.1954,0.2027,0.2138,0.2173,0.2348,0.2509,0.2568,0.2615,0.2703,0.275,0.2787,0.2785,0.2902,0.2854,0.2863,0.2767,0.2727,0.2704,0.2706,0.2745,0.2747,0.2749,0.275,0,0.1597,0.1619,0.1709,0.1778,0.1876,0.1907,0.198,0.2049,0.2134,0.2353,0.2368,0.2527,0.2678,0.2658,0.2689,0.2678,0.2625,0.2521,0.2546,0.2565,0.2444,0.2358,0.2252,0,0,0,0,0,0.1537,0.1548,0.1606,0.1664,0.1752,0.1808,0.1931,0.2005,0.217,0.2153,0.2253,0.2321,0.2371,0.2454,0.2396,0.2586,0.2636,0.2506,0.2529,0.2654,0.2673,0.2549,0,0,0,0,0,0,0.1493,0.1546,0.1562,0.1554,0.1572,0.1647,0.1719,0.183,0.1823,0.2002,0.2042,0.2179,0.2264,0.2384,0.2353,0.2376,0.2341,0.2608,0.2602,0.2644,0.2661,0.2676,0.2555,0,0,0,0,0]},{"header":{"parameterUnit":"m.s-1","parameterCategory":2,"la1":30.2991,"la2":30.254,"lo1":-89.0895,"lo2":-89.0444,"dy":0.0017,"dx":0.0017,"nx":28,"ny":28,"refTime":"2025-11-06T09:00:00:Z","depth":"4","parameterNumber":3,"parameterNumberName":"V-component_of_CURRENTS"},"data":[0,0,0,0,0,0,0,0,0,0,0,0,0,0,0,0,0,0,0,0,0,0,0,0,0,0,0,0,0,0,0,0,0,0,0,0,0,0,0,0,0,0,0,0,0,0,0,0,0,0,0,0,0,0,0,0,0,0,0.0176,0.0175,0,0.0142,0.0141,0.0141,0.0118,0.0118,0.0118,0.0118,0.0075,0.0074,0.0073,0,0,0,0,0,0,0,0,0,0,0,0,0,0.0189,0.0189,0.0176,0.0175,0.0175,0.0142,0.0141,0.014,0.0118,0.0118,0.0118,0.0118,0.0075,0.0074,0.0073,0,0,0,0,0,0,0,0,0,0,0,0,0,0.0171,0.0189,0.0176,0.0161,0.0159,0.0142,0.0141,0.014,0.0118,0.0118,0.0118,0.0118,0.0076,0.0074,0.0073,0.0064,0,0,0.0067,0.0067,0,0,0,0,0,0,0,0,0.0172,0.017,0.0163,0.0162,0.016,0.0135,0.013,0.0115,0.0118,0.0132,0.0118,0.0118,0.0095,0.0092,0.0084,0.0062,0.006,0.0067,0.0066,0.0066,0.0065,0,0,0,0,0,0,0,0.0173,0.0171,0.0161,0.0163,0.0161,0.0145,0.0142,0.0127,0.0113,0.0131,0.0129,0.0128,0.0094,0.0086,0.0083,0.0059,0.0067,0.0066,0.0065,0.0064,0.0038,0.0039,0,0,0,0,0,0,0.0182,0.0173,0.0162,0.016,0.0167,0.0145,0.0142,0.0142,0.0113,0.0109,0.0128,0.0127,0.0088,0.0085,0.0081,0.0091,0.0066,0.0064,0.0063,0.0038,0.0038,0.0039,0,0,0,0,0,0,0.0182,0.0181,0.0163,0.0166,0.0163,0.0145,0.0145,0.0141,0.0137,0.0112,0.0107,0.0128,0.0088,0.0083,0.0074,0.0088,0.0063,0.0062,0.0038,0.0038,0.0039,0.0096,0,0,0,0,0,0,0.0183,0.0182,0.0185,0.0167,0.0163,0.0161,0.0145,0.0141,0.0136,0.0135,0.011,0.0106,0.0088,0.0077,0.0073,0.0085,0.0061,0.0037,0.0038,0.0038,0.0093,0.0098,0.0102,0,0,0,0,0,0.0183,0.0191,0.0185,0.0184,0.0168,0.0161,0.0158,0.0143,0.0137,0.0138,0.0122,0.0107,0.0078,0.0076,0.0071,0.0083,0.0037,0.0038,0.0038,0.0091,0.0097,0.0102,0,0,0,0,0,0,0.0197,0.0189,0.0182,0.0186,0.0178,0.0158,0.0159,0.0148,0.0136,0.0136,0.011,0.0105,0.0101,0.0083,0.0082,0.0076,0.0055,0.0055,0.0097,0.0102,0.0106,0.0119,0.0059,0,0,0,0,0,0.0202,0.0207,0.0194,0.0198,0.0195,0.0178,0.0173,0.0165,0.0152,0.0146,0.0128,0.0111,0.0099,0.0094,0.0077,0.0075,0.0044,0.0079,0.0083,0.0087,0.0093,0.0055,0.0057,0.0041,0.0041,0.0041,0,0,0.0209,0.0205,0.0207,0.0201,0.0193,0.0201,0.0175,0.0174,0.0183,0.0144,0.0148,0.0124,0.01,0.0099,0.0096,0.0087,0.0074,0.0088,0.0092,0.0096,0.0056,0.0058,0.0059,0.0041,0.0041,0.0041,0,0,0.0231,0.0222,0.0236,0.0233,0.0227,0.0219,0.0222,0.0207,0.0202,0.02,0.0176,0.016,0.0141,0.0127,0.0118,0.0135,0.0096,0.013,0.0166,0.0129,0.013,0.0131,0.009,0.0086,0.0135,0.0135,0.0136,0,0.0239,0.0257,0.0238,0.0252,0.026,0.0233,0.0255,0.0244,0.0228,0.0229,0.021,0.0178,0.0156,0.0156,0.0162,0.0146,0.0116,0.0151,0.0135,0.0135,0.0135,0.0092,0.0088,0.0138,0.0138,0.0138,0.0137,0,0.0273,0.0288,0.0297,0.031,0.0313,0.0326,0.0315,0.0313,0.0301,0.0289,0.0278,0.0238,0.0222,0.021,0.0193,0.0185,0.016,0.0143,0.0124,0.014,0.0094,0.0088,0.0142,0.0141,0.014,0.014,0,0,0.0293,0.0318,0.0322,0.0345,0.0348,0.0358,0.0371,0.0378,0.0393,0.0358,0.0367,0.0332,0.0302,0.029,0.0257,0.0224,0.0191,0.0189,0.0186,0.0152,0.0105,0.0089,0.0081,0.017,0.017,0.0169,0.0072,0,0.0329,0.0376,0.0377,0.0425,0.0452,0.0439,0.0456,0.0456,0.0445,0.0443,0.0392,0.0386,0.0336,0.033,0.0288,0.0219,0.0179,0.0219,0.0091,0.0087,0.0075,0.0075,0.0168,0.0068,0.0066,0.0065,0.0065,0,0.0364,0.0395,0.0451,0.0495,0.0505,0.0528,0.0557,0.0571,0.0556,0.0545,0.0517,0.0473,0.0426,0.0378,0.0258,0.0286,0.0204,0.0139,0.0133,0.0096,0.0061,0.0048,0.0053,0.0054,0.0055,0.0056,0.0056,0,0.0395,0.0448,0.05,0.0514,0.0554,0.0578,0.06,0.0603,0.0631,0.0613,0.0619,0.0544,0.0513,0.04,0.0265,0.0262,0.0122,0.0099,0.0003,0.0001,0.0019,0.0019,0.0011,0.0011,0.0011,0.0012,0.0012,0,0.0432,0.0475,0.0522,0.0551,0.0619,0.0627,0.0691,0.0696,0.0713,0.0747,0.0678,0.0672,0.0517,0.0417,0.0285,0.0127,0.0133,0.0009,-0.0023,0.0044,0.0048,0.0014,0.0015,0.0008,0.0009,0.001,0.001,0,0.0458,0.0486,0.0553,0.061,0.0637,0.0686,0.0763,0.0805,0.081,0.0849,0.0847,0.0768,0.0635,0.0468,0.028,0.0163,0.0008,-0.005,0.0034,0.0008,-0.0096,-0.009,-0.0167,-0.0169,-0.017,-0.0171,-0.0171,0,0.0475,0.0511,0.0599,0.0645,0.0678,0.0756,0.0811,0.0852,0.0897,0.0903,0.0919,0.0815,0.0735,0.0463,0.028,0.0021,-0.0018,-0.0107,-0.0105,-0.009,-0.0114,-0.0106,-0.0099,-0.0173,-0.0173,-0.0174,-0.0174,0,0.0506,0.0537,0.0593,0.069,0.0762,0.085,0.0927,0.0966,0.1005,0.1014,0.0977,0.0837,0.0686,0.0468,0.0267,0.0081,-0.0054,-0.0119,-0.0118,-0.0117,-0.0098,-0.0119,-0.0111,-0.0178,-0.0177,-0.0177,-0.0177,0,0.0528,0.0569,0.064,0.0727,0.0822,0.0907,0.0952,0.0999,0.1043,0.1041,0.1026,0.0865,0.0775,0.0499,0.0316,0.0129,0.0075,0.0004,-0.0002,-0.0,0.0073,0.0123,0.0085,0,0,0,0,0,0.0546,0.059,0.067,0.0764,0.0861,0.092,0.1012,0.1046,0.1081,0.1065,0.1048,0.0907,0.0637,0.0527,0.0338,0.0277,0.0032,0.0046,-0.0055,-0.0199,-0.0195,-0.0139,0,0,0,0,0,0,0.0553,0.0627,0.0666,0.078,0.0849,0.0961,0.1023,0.105,0.104,0.1043,0.091,0.0847,0.0592,0.0747,0.0332,0.0276,0.018,-0.0073,-0.0078,-0.0202,-0.0198,-0.0194,-0.0135,0,0,0,0,0]}]]